Lexington Weather

Lexington, Massachusetts, USA

36°F
1/27/2020 7:38am 
  • Lexington Conditions: Overcast
  • Temperature: 36.3°F / 2.4°CWarmer 0.3°F than last hour.
  • Dew Point: 31.3°F 
  • Relative Humidity: 82%Decreased 1.0% since last hour.
  • Wind: Wind from WSW WSW 1 mph, 10-min avg: 2 mph, gust: 8 mph
  • Barometer: 29.57 in Steady
  • Visibility: 10 miles
  • Rain Today: 0.00 in
  •   

Regional Weather Roundup
for Boston / Norton, MA

        
000
ASUS41 KBOX 241810
RWRBOX

REGIONAL WEATHER ROUNDUP
NATIONAL WEATHER SERVICE BOSTON/NORTON MA
100 PM EST FRI JAN 24 2020

NOTE:  "FAIR" INDICATES FEW OR NO CLOUDS BELOW 12,000 FEET WITH NO 
SIGNIFICANT WEATHER AND/OR OBSTRUCTIONS TO VISIBILITY.

MAZALL-241900-
EASTERN MASSACHUSETTS
  
CITY           SKY/WX    TMP DP  RH WIND       PRES   REMARKS
BOSTON         PTSUNNY   48  33  56 NE9       30.41F                  
6HR MIN TEMP:  35; 6HR MAX TEMP:  48;                                

BEVERLY        FAIR      43  33  68 N9        30.42F                  
LAWRENCE       FAIR      41  32  70 NE10      30.43F                  
BEDFORD        FAIR      47  30  51 VRB5      30.40F                  
BLUE HILL        N/A     41  33  73 NE9       30.37F                  
NORWOOD        FAIR      49  33  54 NE8       30.40F                  
MARSHFIELD     FAIR      46  37  71 VRB5      30.39F                  
PLYMOUTH       FAIR      46  32  58 NE9       30.38F                  
TAUNTON        FAIR      49  26  41 VRB3      30.38F                  
NEW BEDFORD    FAIR      49  24  37 NE5       30.37F                  
$$

MAZALL-241900-
CAPE COD AND THE ISLANDS
  
CITY           SKY/WX    TMP DP  RH WIND       PRES   REMARKS
FALMOUTH       SUNNY     48  28  46 NE7       30.37F                  
HYANNIS        FAIR      46  32  58 N5        30.37F                  
CHATHAM        FAIR      45  35  68 E6        30.39F                  
PROVINCETOWN   FAIR      45  37  73 NE6       30.40F                  
NANTUCKET      FAIR      45  38  76 S6        30.37F                  
MARTHAS VNYRD  FAIR      46  26  45 NE8       30.37F                  
$$
 
MAZALL-241900-
CENTRAL AND WESTERN MASSACHUSETTS
  
CITY           SKY/WX    TMP DP  RH WIND       PRES   REMARKS
WORCESTER      FAIR      40  22  48 NE9       30.35F                  
6HR MIN TEMP:  34; 6HR MAX TEMP:  41;                                

FITCHBURG      FAIR      43  25  49 E5        30.40F                  
ORANGE         FAIR      46  17  31 E7        30.37F                  
SPRINGFIELD    PTSUNNY   43  19  38 W8        30.36F                  
WESTFIELD      FAIR      43  15  32 N5        30.37F                  
NORTH ADAMS      N/A    N/A N/A N/A MISG      30.33F                  
PITTSFIELD     FAIR      48  19  31 N3        30.30F                  
$$
 
RIZALL-241900-
RHODE ISLAND
  
CITY           SKY/WX    TMP DP  RH WIND       PRES   REMARKS
PROVIDENCE     PTSUNNY   49  23  36 N8        30.38F                  
6HR MIN TEMP:  28; 6HR MAX TEMP:  49;                                

NEWPORT        FAIR      45  22  40 N8        30.36F                  
BLOCK ISLAND   FAIR      41  26  55 NE9       30.37F                  
SMITHFIELD     FAIR      45  26  47 NE10      30.37F                  
WESTERLY       FAIR      50  24  36 S6        30.36F                  
$$
 
CTZALL-241900-
CONNECTICUT
  
CITY           SKY/WX    TMP DP  RH WIND       PRES   REMARKS
BRADLEY INTL   PTSUNNY   45  18  34 N3        30.36F                  
6HR MIN TEMP:  22; 6HR MAX TEMP:  45;                                

HARTFORD       FAIR      43  19  38 CALM      30.37F                  
BRIDGEPORT     FAIR      45  23  42 E5        30.36F                  
DANBURY        FAIR      48  19  31 NE5       30.34F                  
GROTON         FAIR      47  25  42 SE7       30.35F                  
NEW HAVEN      FAIR      49  25  39 VRB5      30.35F                  
CHESTER          N/A     52  18  25 CALM      30.34F                  
MERIDEN        FAIR      45  22  40 NW9       30.36F                  
WILLIMANTIC    FAIR      50  17  27 CALM      30.36F                  
OXFORD         FAIR      48  16  27 CALM      30.35F                  
$$

MEZ002-015-021-024-NHZ003-005-008-011-012-014-VTZ005-008-241900-
NORTHERN NEW ENGLAND
  
CITY           SKY/WX    TMP DP  RH WIND       PRES   REMARKS
PORTLAND ME    FAIR      39  27  62 NE5       30.46S                  
6HR MIN TEMP:  27; 6HR MAX TEMP:  39;                                

BANGOR ME      PTSUNNY   37  26  64 N6        30.47F                  
CONCORD NH     FAIR      43  21  41 CALM      30.41F                  
MANCHESTER NH  PTSUNNY   44  24  45 NE5       30.40F                  
NASHUA NH      FAIR      44  28  53 E6        30.41F                  
PORTSMOUTH NH  PTSUNNY   41  32  69 NE6       30.42S                  
JAFFREY NH     FAIR      44  13  28 VRB6      30.36F                  
KEENE NH       FAIR      40  18  41 N6        30.37F                  
BURLINGTON VT  PTSUNNY   38  22  52 CALM      30.35F                  
MT. WASHINGTON MOSUNNY   30  -2  24 SW16        N/A  WCI  19          
$$

NYZ052-076-241900-
EASTERN NEW YORK
  
CITY           SKY/WX    TMP DP  RH WIND       PRES   REMARKS
ALBANY         FAIR      38  20  48 NE3       30.36F                  
6HR MIN TEMP:  20; 6HR MAX TEMP:  38;                                

NEW YORK CITY  FAIR      46  24  42 NE13      30.34F                  
6HR MIN TEMP:  36; 6HR MAX TEMP:  46;                                

$$
 
ANZALL-241900-
MARINE OBSERVATIONS
  
STATION/POSITION TIME  TEMP    WIND        PRES    VSBY  WAVE
                       AIR SEA DIR/SP/G                  HT/PER
                 (UTC) (F)     (DEG/KT/KT) (MB)    (MI)  (FT/S)
BOSTON BUOY      1750   43 43   20/ 10/ 10 1028.9F         3/11
BUZZARDS BAY     1700   38      40/  7/  7 1029.5F
NANTUCKET SOUND  1740                        N/A           1/10
MASS BAY-STELLWA 1704   42 42   40/  6/  8 1028.1F  1 7/8  4/11
ISLE OF SHOALS   1800   38      20/ 18/ 20 1029.7F
S OF BLOCK IS    1800      45                N/A           4/10
$$

......................KEY.........................
  SKY/WX - SKY CONDITION/PRESENT WEATHER
  TMP    - TEMPERATURE IN FAHRENHEIT
  DWPT   - DEWPOINT IN FAHRENHEIT
  RH     - RELATIVE HUMIDITY IN PERCENT
  WIND   - DIRECTION AND SPEED IN MPH
  PRES   - MEAN SEA LEVEL PRESSURE IN INCHES OF HG
  WCI    - WIND CHILL INDEX
  VSB    - VISIBILITY IN MILES
  HX     - HEAT INDEX
  TC     - TEMPERATURE IN CELSIUS
  VRB    - VARIABLE WIND DIRECTION
  N/A    - NOT AVAILABLE
  
      

Other recent Regional Weather Roundups

Mon Jan 27, 7:10am

Mon Jan 27, 7:00am

Mon Jan 27, 6:10am

Mon Jan 27, 6:00am

Mon Jan 27, 5:10am

Mon Jan 27, 5:00am

Mon Jan 27, 4:10am

Mon Jan 27, 4:01am

Mon Jan 27, 3:10am

Mon Jan 27, 3:00am

Mon Jan 27, 2:10am

Mon Jan 27, 2:00am

Mon Jan 27, 1:10am

Mon Jan 27, 1:00am

Mon Jan 27, 12:10am

Mon Jan 27, 12:00am

Sun Jan 26, 11:10pm

Sun Jan 26, 11:00pm

Sun Jan 26, 10:10pm

Sun Jan 26, 10:00pm

Sun Jan 26, 9:10pm

Sun Jan 26, 9:01pm

Sun Jan 26, 8:10pm

Sun Jan 26, 8:00pm

Sun Jan 26, 7:10pm

Sun Jan 26, 7:00pm

Sun Jan 26, 6:10pm

Sun Jan 26, 6:01pm

Sun Jan 26, 5:10pm

Sun Jan 26, 5:01pm

Sun Jan 26, 4:10pm

Sun Jan 26, 4:00pm

Sun Jan 26, 3:10pm

Sun Jan 26, 3:01pm

Sun Jan 26, 2:10pm

Sun Jan 26, 2:01pm

Sun Jan 26, 1:10pm

Sun Jan 26, 1:00pm

Sun Jan 26, 12:10pm

Sun Jan 26, 12:00pm

Sun Jan 26, 11:10am

Sun Jan 26, 11:01am

Sun Jan 26, 10:10am

Sun Jan 26, 10:01am

Sun Jan 26, 9:10am

Sun Jan 26, 9:00am

Sun Jan 26, 8:10am

Sun Jan 26, 8:00am

Sun Jan 26, 7:10am

Sun Jan 26, 7:00am

Sun Jan 26, 6:10am

Sun Jan 26, 6:00am

Sun Jan 26, 5:10am

Sun Jan 26, 5:00am

Sun Jan 26, 4:10am

Sun Jan 26, 4:01am

Sun Jan 26, 3:10am

Sun Jan 26, 3:01am

Sun Jan 26, 2:10am

Sun Jan 26, 2:00am

Sun Jan 26, 1:10am

Sun Jan 26, 1:00am

Sun Jan 26, 12:10am

Sun Jan 26, 12:00am

Sat Jan 25, 11:10pm

Sat Jan 25, 11:00pm

Sat Jan 25, 10:10pm

Sat Jan 25, 10:01pm

Sat Jan 25, 9:10pm

Sat Jan 25, 9:01pm

Sat Jan 25, 8:10pm

Sat Jan 25, 8:01pm

Sat Jan 25, 7:10pm

Sat Jan 25, 7:01pm

Sat Jan 25, 6:10pm

Sat Jan 25, 6:01pm

Sat Jan 25, 5:10pm

Sat Jan 25, 5:01pm

Sat Jan 25, 4:10pm

Sat Jan 25, 4:00pm

Sat Jan 25, 3:10pm

Sat Jan 25, 3:01pm

Sat Jan 25, 2:10pm

Sat Jan 25, 2:00pm

Sat Jan 25, 1:10pm

Sat Jan 25, 1:00pm

Sat Jan 25, 12:10pm

Sat Jan 25, 12:00pm

Sat Jan 25, 11:10am

Sat Jan 25, 11:00am

Sat Jan 25, 10:10am

Sat Jan 25, 10:00am

Sat Jan 25, 9:10am

Sat Jan 25, 9:00am

Sat Jan 25, 8:10am

Sat Jan 25, 8:01am

Sat Jan 25, 7:10am

Sat Jan 25, 7:00am

Sat Jan 25, 6:10am

Sat Jan 25, 6:00am

Sat Jan 25, 5:10am

Sat Jan 25, 5:00am

Sat Jan 25, 4:10am

Sat Jan 25, 4:00am

Sat Jan 25, 3:10am

Sat Jan 25, 3:00am

Sat Jan 25, 2:10am

Sat Jan 25, 2:01am

Sat Jan 25, 1:10am

Sat Jan 25, 1:00am

Sat Jan 25, 12:10am

Sat Jan 25, 12:00am

Fri Jan 24, 11:10pm

Fri Jan 24, 11:00pm

Fri Jan 24, 10:10pm

Fri Jan 24, 10:00pm

Fri Jan 24, 9:10pm

Fri Jan 24, 9:00pm

Fri Jan 24, 8:10pm

Fri Jan 24, 8:01pm

Fri Jan 24, 7:10pm

Fri Jan 24, 7:00pm

Fri Jan 24, 6:10pm

Fri Jan 24, 6:01pm

Fri Jan 24, 5:10pm

Fri Jan 24, 5:01pm

Fri Jan 24, 4:10pm

Fri Jan 24, 4:00pm

Fri Jan 24, 3:10pm

Fri Jan 24, 3:00pm

Fri Jan 24, 2:10pm

Fri Jan 24, 2:01pm

Fri Jan 24, 1:00pm

Fri Jan 24, 12:10pm

Fri Jan 24, 12:01pm

Fri Jan 24, 11:10am

Fri Jan 24, 11:01am

Fri Jan 24, 10:10am

Fri Jan 24, 10:00am

Fri Jan 24, 9:10am

Fri Jan 24, 9:00am

Fri Jan 24, 8:10am

Fri Jan 24, 8:01am

Meta data:

ID: f3f85096-9aeb-4abe-8404-6541ab62dc2a
Link: https://api.weather.gov/products/f3f85096-9aeb-4abe-8404-6541ab62dc2a